Terug naar catalogus

STARLINK-34578

ActiefCommunicatieSSO
NORAD 64856·PAYLOAD·🇺🇸 United States

Gelanceerd Jul 19, 2025 vanaf Vandenberg Space Force Base

Loading…

Volgende Passages (komende 24 uur)

TLE

VersSource: CelesTrak SupGP

Epoch: Sep 15, 2026, 03:42 UTC

1 64856C 25152Q   26258.15465278 -.00036821  00000+0 -11427-2 0  2581
2 64856  97.2848 108.8154 0001743  92.7678 345.9549 15.33465191    18

Volg STARLINK-34578 in realtime met AllMySat

Download on the App Store